CAPE
0 0 0 559 1160 1599 1759 1514 1591 1201 242 228 302 294 126 6 6 6 6 6 40 222 184 201 71 65 18 29 141 193 185 138
0 0 0 696 1201 1656 1678 1373 1436 796 334 372 171 310 153 45 41 11 15 16 7 48 72 68 8 6 3 4 165 175 145 144
0 0 8 745 1148 1579 1567 1250 1135 787 526 300 140 50 86 83 64 247 207 109 143 67 31 15 2 3 1 0 125 149 152 134
0 0 0 701 994 1498 1209 1022 1094 508 461 213 159 91 24 37 109 232 121 75 39 35 39 2 2 1 0 0 110 157 150 151
0 0 0 520 882 1342 970 965 1000 377 299 193 112 33 15 80 66 23 86 8 18 1 8 1 2 1 2 1 35 137 126 133
0 0 0 342 789 1312 912 600 655 298 143 247 73 58 45 100 40 28 6 6 5 3 1 1 1 2 2 1 51 174 169 159
1 0 0 223 738 1210 649 284 182 187 226 261 81 70 57 43 41 8 9 8 10 5 1 1 2 1 2 2 77 128 100 153
323 124 181 362 900 745 126 120 73 120 466 163 27 54 41 18 28 5 4 6 5 9 6 4 2 2 1 0 7 34 68 138
457 158 349 457 851 91 16 35 74 49 279 57 7 14 24 19 24 22 8 11 4 2 1 4 5 4 6 4 0 10 40 126
554 166 483 518 668 20 41 60 49 12 58 5 4 12 14 11 8 20 33 51 47 8 4 1 0 0 1 1 0 1 16 73
93 252 412 603 366 51 199 418 29 9 3 6 5 8 12 11 11 25 26 30 27 33 8 4 1 1 0 0 0 7 2 7
2 318 321 322 110 182 158 98 4 3 8 7 1 5 7 11 12 10 21 28 20 31 5 3 2 1 0 0 0 0 10 14
3 2 107 93 40 10 25 20 7 11 8 4 5 18 14 12 8 9 29 33 31 31 23 4 4 2 1 0 0 0 0 0
2 2 2 1 9 9 12 10 10 8 6 7 12 16 9 8 5 30 22 15 22 26 26 38 23 7 7 1 0 0 2 0
2 2 2 2 1 1 1 3 9 10 9 10 12 8 7 6 1 26 3 2 5 20 15 9 12 27 19 6 4 3 2 2
3 4 2 1 2 2 2 2 1 1 1 0 1 0 0 3 7 18 31 30 24 25 27 17 11 19 0 0 26 28 27 29
2 3 1 1 1 1 1 1 2 1 1 0 0 0 0 0 0 2 1 1 0 0 0 0 1 0 0 0 0 0 33 41
3 6 4 2 1 1 2 1 1 1 0 0 0 0 0 1 0 0 0 1 1 1 1 1 0 0 0 0 0 0 1 0
2 4 3 2 1 1 1 1 2 2 1 0 0 2 2 1 0 1 1 3 3 3 2 2 1 1 0 0 0 1 2 3
CIN
0 0 0 -87 -110 -138 -143 -173 -129 -142 -259 -229 -161 -132 -132 0 0 -0 0 -4 -21 0 -0 -0 -5 -12 -27 -23 -1 0 0 0
0 0 0 -130 -137 -151 -152 -194 -145 -212 -247 -187 -197 -96 -125 -145 -105 0 -0 -19 0 -13 -0 -0 -52 -62 -30 -50 -1 0 0 0
0 0 -151 -144 -151 -172 -186 -231 -215 -196 -193 -206 -199 -172 -139 -79 -34 0 -0 -13 0 -9 -1 -16 -6 -0 -1 0 -1 0 -0 0
0 0 0 -146 -166 -196 -267 -293 -208 -259 -191 -223 -171 -165 -85 -91 -26 0 -3 -3 -6 -4 -3 0 -0 -0 -1 0 -0 0 0 -1
0 0 0 -127 -175 -201 -302 -267 -190 -278 -241 -213 -182 -205 -184 -118 -73 -3 -2 -6 -7 -3 -0 -1 -0 -1 -0 -1 -2 0 -0 -0
0 0 0 -95 -174 -209 -293 -315 -232 -294 -297 -169 -189 -210 -236 -113 -32 -0 0 0 0 0 0 -0 -0 -0 -1 -2 -1 0 0 0
-22 0 0 -129 -183 -205 -338 -397 -371 -319 -234 -157 -185 -222 -226 -182 0 0 0 0 0 0 0 -0 -0 -0 -0 -3 -1 -0 -0 -0
-105 -127 -162 -183 -212 -315 -522 -474 -441 -335 -150 -163 -253 -217 -246 -32 0 0 0 0 0 0 0 0 0 -0 -0 -0 -45 -13 -0 0
-110 -181 -228 -249 -210 -513 -558 -511 -428 -379 -166 -206 0 -58 -28 0 -0 -2 -2 -2 0 0 0 0 0 0 0 -0 0 -17 -10 -0
-148 -227 -211 -238 -244 -569 -519 -467 -436 -357 -194 0 0 0 0 -0 -0 0 0 0 0 0 0 -0 -0 -0 -0 -0 0 -2 -14 -12
-112 -249 -226 -204 -299 -468 -352 -244 -448 -85 0 0 0 0 0 -0 -0 0 0 0 0 -1 0 0 -0 -0 -0 0 0 -1 -2 -23
0 -199 -237 -254 -355 -329 -332 -328 -492 0 0 0 0 -0 0 0 -0 0 0 0 0 0 0 0 0 -0 0 0 0 0 -2 -0
0 0 -248 -299 -336 -22 -378 -388 -427 -74 0 0 0 0 0 -0 0 -2 0 0 0 0 -0 0 0 0 -0 0 0 0 0 0
0 0 0 0 0 0 0 -77 0 0 -0 0 0 0 -0 -2 -0 0 -0 -0 0 0 0 0 -0 -0 0 -0 0 -0 0 0
0 0 0 0 0 0 0 -0 -0 0 0 0 0 -1 -1 -0 0 0 -8 -6 -2 -3 -1 -0 0 -2 0 -0 0 -1 -0 -0
0 0 0 0 0 0 0 0 0 0 0 0 0 0 -0 0 -0 -0 -0 -0 -0 -0 -0 -1 -3 -2 0 0 -0 -0 0 -1
0 0 0 0 0 0 0 0 0 0 0 0 0 0 0 0 0 0 0 0 0 0 0 0 0 0 0 0 0 0 0 -1
0 0 0 0 0 0 0 0 0 0 0 0 0 0 0 0 0 0 0 0 0 0 0 0 0 0 0 0 0 0 0 0
0 0 0 0 0 -0 -0 0 0 0 0 0 0 0 0 0 0 0 0 0 0 0 0 0 0 0 0 0 0 0 0 0
Wind_Speed
15 10 10 13 16 17 18 16 16 14 9 9 7 7 6 6 5 5 9 8 11 11 7 10 11 10 9 7 10 11 12 11
16 10 9 13 15 18 20 19 18 12 11 10 8 8 7 5 7 10 11 10 10 10 7 11 11 12 13 12 10 15 11 11
17 14 10 14 17 19 19 19 19 15 11 10 7 7 5 7 8 11 12 13 15 12 8 12 14 11 13 13 14 12 11 13
17 17 14 14 17 20 20 20 20 17 14 9 8 6 4 6 7 7 6 7 11 13 14 8 16 14 12 14 14 16 12 13
18 17 17 17 17 18 19 20 19 17 17 13 14 9 8 8 6 5 5 7 9 12 15 14 10 11 13 13 13 13 14 14
17 16 17 16 16 18 18 19 19 18 16 14 11 11 7 5 5 8 6 4 4 7 10 14 13 9 14 16 15 15 12 12
14 13 12 14 16 17 15 17 19 19 16 15 13 13 10 7 6 5 6 4 5 6 6 8 11 9 12 11 14 14 11 11
11 8 11 14 19 18 15 18 19 18 17 14 13 13 11 10 9 5 7 5 3 6 7 6 7 9 10 9 10 11 11 10
12 7 9 13 17 16 16 19 19 18 16 14 11 12 8 8 8 7 6 5 6 10 7 9 9 9 10 9 7 7 8 9
16 6 9 12 15 15 15 19 18 17 15 13 11 11 12 9 9 8 6 6 8 10 11 9 10 10 11 11 8 9 9 10
19 8 6 9 13 14 15 19 18 18 16 13 10 11 11 10 8 9 8 7 8 9 10 10 11 12 12 12 9 8 9 7
17 9 4 7 11 12 11 14 16 16 15 14 13 11 10 9 8 9 9 9 8 10 9 9 11 12 11 11 11 11 11 8
15 15 4 9 11 12 11 13 13 14 13 12 12 11 10 8 8 9 8 9 9 9 11 10 10 11 12 12 12 12 15 13
15 14 14 9 8 9 11 10 12 12 12 10 10 9 9 8 7 6 6 6 7 8 8 10 11 11 12 12 15 15 15 14
14 14 13 12 12 12 9 7 9 10 11 10 10 9 8 7 6 6 8 6 5 6 8 9 8 9 10 12 13 14 14 14
14 13 12 13 13 12 12 11 11 11 11 11 10 10 9 6 2 4 4 6 5 8 8 7 7 6 7 8 11 14 13 12
12 12 13 13 14 13 12 12 12 11 13 12 10 11 11 11 10 11 11 11 12 12 11 11 13 8 13 12 9 6 8 10
11 12 12 12 13 11 12 12 12 12 13 12 12 12 12 11 11 13 13 12 11 13 12 12 12 11 16 11 8 4 4 8
11 10 11 11 10 11 10 12 13 12 13 13 13 13 12 12 13 14 14 12 13 11 12 12 12 11 17 10 7 13 13 14
Wind_Direction
235 233 214 200 192 190 181 185 180 169 178 179 185 169 185 175 183 188 185 193 198 204 195 171 160 161 162 168 185 191 174 168
244 229 204 191 189 187 183 180 178 164 180 171 180 192 183 190 198 206 207 197 200 207 200 178 161 166 168 173 181 180 173 169
240 230 201 196 188 187 183 182 174 179 183 174 177 183 196 205 212 214 215 212 211 199 200 193 171 165 169 170 186 176 175 175
245 241 211 194 195 188 184 181 179 177 178 161 177 167 175 202 222 221 229 228 219 210 203 201 169 162 168 173 189 178 166 179
243 248 210 201 198 185 182 181 177 175 167 170 184 192 190 205 206 191 204 230 227 214 188 174 179 162 166 175 191 181 176 178
255 238 225 201 187 179 182 175 175 172 170 181 181 194 194 199 174 167 168 152 169 170 174 170 166 169 169 176 187 188 178 181
289 265 227 194 181 170 167 171 173 169 177 180 186 187 186 190 162 164 159 164 159 136 128 165 149 153 157 177 181 184 176 189
321 258 206 185 176 155 161 167 167 166 183 176 186 191 180 192 160 151 148 152 143 143 144 143 147 148 153 161 176 181 187 191
334 266 204 182 173 153 165 167 161 164 178 169 176 198 169 185 180 173 168 165 165 157 154 160 158 146 156 158 169 186 198 201
345 296 182 180 161 162 166 166 161 162 170 163 175 187 163 176 182 189 182 184 164 176 171 168 162 164 164 168 166 186 202 203
341 5 170 163 147 167 174 172 162 162 168 164 173 182 178 169 179 173 175 183 174 178 177 177 172 170 171 169 163 185 191 198
343 341 111 148 154 165 156 156 161 163 166 167 172 175 174 161 171 183 180 177 183 169 169 168 175 173 173 179 181 185 202 190
350 358 81 122 141 143 151 151 157 156 161 167 168 167 166 172 190 196 174 171 177 174 164 169 167 180 183 187 188 198 212 215
359 5 31 35 122 133 142 148 151 151 152 159 153 156 166 175 190 188 184 178 181 174 177 183 180 191 187 196 203 209 213 215
5 7 25 26 42 43 66 115 133 143 144 151 145 148 158 170 188 206 172 190 200 192 179 182 194 194 193 198 209 215 221 224
13 8 19 26 32 43 43 45 60 85 89 82 75 67 63 82 149 225 177 182 196 191 183 185 192 209 29 343 224 211 217 222
27 13 26 30 32 36 42 41 57 66 77 73 67 70 71 65 57 54 52 55 52 57 48 46 60 57 5 5 347 283 244 240
41 26 26 33 38 37 45 48 53 59 70 64 62 63 63 66 69 66 61 56 57 60 57 60 53 29 2 357 358 337 359 48
63 38 36 34 41 45 56 56 53 55 60 65 64 63 62 62 71 71 67 64 62 59 60 54 51 27 8 6 45 79 71 58